This demonstration page uses our WeatherBlox Daily Observations layout. Learn more.

Left ArrowRight Arrow

41.55636, -103.73856

Hourly Observations for January 17, 2015

Temp ( °F °C ) Dew Point ( °F °C ) Humidity (%) Winds ( mph kmh ) Pressure ( in mb ) Visibility ( mi km ) Precip ( " mm )
12:53 am 00:53 Partly Cloudy 41 5 30 -1.1 65 65 W 16 26 29.85 1011 10 16 0.00 0.00
1:53 am 01:53 Clear 40 4.4 29 -1.7 65 65 W 20 31 29.89 1012 10 16 0.00 0.00
2:53 am 02:53 Cloudy 38 3.3 30 -1.1 73 73 NW 17 28 29.96 1015 10 16 0.00 0.00
3:53 am 03:53 Clear 38 3.3 30 -1.1 73 73 W 12 19 29.96 1015 10 16 0.00 0.00
4:53 am 04:53 Mostly Cloudy 38 3.3 29 -1.7 70 70 WNW 16 26 30.00 1016 10 16 0.00 0.00
5:53 am 05:53 Mostly Clear 36 2.2 26 -3.3 67 67 WNW 23 37 30.05 1018 10 16 0.00 0.00
6:53 am 06:53 Clear 34 1.1 26 -3.3 73 73 WNW 16 26 30.08 1019 10 16 0.00 0.00
7:53 am 07:53 Sunny 32 0 25 -3.9 75 75 WNW 10 17 30.13 1020 10 16 0.00 0.00
8:53 am 08:53 Sunny 37 2.8 25 -3.9 62 62 WNW 16 26 30.14 1021 10 16 0.00 0.00
9:53 am 09:53 Sunny 37 2.8 27 -2.8 67 67 WNW 14 22 30.18 1022 10 16 0.00 0.00
10:53 am 10:53 Sunny 38 3.3 27 -2.8 65 65 W 14 22 30.19 1022 10 16 0.00 0.00
11:53 am 11:53 Sunny 40 4.4 26 -3.3 58 58 W 13 20 30.16 1021 10 16 0.00 0.00
12:53 pm 12:53 Sunny 42 5.6 24 -4.4 49 49 W 12 19 30.13 1020 10 16 0.00 0.00
1:53 pm 13:53 Sunny 42 5.6 24 -4.4 49 49 WNW 7 11 30.13 1020 10 16 0.00 0.00
2:53 pm 14:53 Sunny 42 5.6 26 -3.3 53 53 WNW 7 11 30.13 1020 10 16 0.00 0.00
3:53 pm 15:53 Sunny 39 3.9 26 -3.3 60 60 W 8 13 30.12 1020 10 16 0.00 0.00
4:53 pm 16:53 Clear 37 2.8 24 -4.4 59 59 W 7 11 30.13 1020 10 16 0.00 0.00
5:53 pm 17:53 Clear 38 3.3 23 -5 55 55 W 13 20 30.15 1021 10 16 0.00 0.00
6:53 pm 18:53 Clear 38 3.3 22 -5.6 52 52 WNW 12 19 30.15 1021 10 16 0.00 0.00
7:53 pm 19:53 Clear 30 -1.1 22 -5.6 72 72 NW 9 15 30.14 1021 10 16 0.00 0.00
8:53 pm 20:53 Clear 28 -2.2 20 -6.7 72 72 NW 10 17 30.12 1020 10 16 0.00 0.00
9:53 pm 21:53 Clear 29 -1.7 21 -6.1 72 72 Calm 30.09 1019 10 16 0.00 0.00
10:53 pm 22:53 Clear 24 -4.4 17 -8.3 75 75 ESE 6 9 30.09 1019 10 16 0.00 0.00
11:53 pm 23:53 Clear 25 -3.9 17 -8.3 72 72 ENE 5 7 30.06 1018 10 16 0.00 0.00

Powered by AerisWeather